Glendive, MT

8:32 PM MDT on May 27, 2018 (GMT -0600)
Dawson Community

Weather History for KGDV - November, 2013

Change the Weather History Date:

Friday, November 15, 2013

  Actual Average Record
Temperature  
Mean Temperature 37 °F -  
Max Temperature 50 °F 38 °F 64 °F (2001)
Min Temperature 24 °F 19 °F -7 °F (2014)
Degree Days  
Heating Degree Days 28    
Moisture  
Dew Point 24 °F    
Average Humidity 66    
Maximum Humidity 93    
Minimum Humidity 37    
Precipitation  
Precipitation 0.00 in - - ()
Sea Level Pressure  
Sea Level Pressure 29.48 in    
Wind  
Wind Speed 9 mph (SSW)    
Max Wind Speed 17 mph    
Max Gust Speed 20 mph    
Visibility 10 miles    
Events      
Averages and records for this station are not official NWS values.
T = Trace of Precipitation, MM = Missing Value Source: NWS Daily Summary

Daily Weather History Graph

Daily Weather History Graph

Search for Another Location

Airport or City:

Astronomy

Nov. 15, 2013 Rise Set
Actual Time 7:03 AM MST 4:23 PM MST
Civil Twilight 6:30 AM MST 4:57 PM MST
Nautical Twilight 5:53 AM MST 5:34 PM MST
Astronomical Twilight 5:17 AM MST 6:10 PM MST
Moon 3:27 PM MST (11/15) 4:55 AM MST (11/15)
Length of Visible Light 10h 26m
Length of Day
9h 20m
Waxing Gibbous, 97% of the Moon is Illuminated
Nov 15
Waxing Gibbous
Nov 17
Full
Nov 25
Last Quarter
Dec 2
New
Dec 9
First Quarter

Hourly Weather History & Observations

Time (MST) Temp. Windchill Dew Point Humidity Pressure Visibility Wind Dir Wind Speed Gust Speed Precip Events Conditions
12:15 AM 26.6 °F 18.2 °F 23.0 °F 86% 29.68 in 10.0 mi South 8.1 mph - N/A   Clear
12:35 AM 28.4 °F 19.7 °F 24.8 °F 86% 29.67 in 10.0 mi South 9.2 mph - N/A   Clear
12:55 AM 26.6 °F 18.2 °F 24.8 °F 93% 29.67 in 10.0 mi SSE 8.1 mph - N/A   Clear
1:35 AM 26.6 °F 17.5 °F 23.0 °F 86% 29.65 in 10.0 mi South 9.2 mph - N/A   Clear
2:15 AM 28.4 °F 19.7 °F 24.8 °F 86% 29.65 in 10.0 mi South 9.2 mph - N/A   Clear
2:35 AM 28.4 °F 19.1 °F 24.8 °F 86% 29.64 in 10.0 mi South 10.4 mph - N/A   Clear
2:55 AM 28.4 °F 19.7 °F 23.0 °F 80% 29.63 in 10.0 mi South 9.2 mph - N/A   Clear
3:15 AM 28.4 °F 19.7 °F 24.8 °F 86% 29.62 in 10.0 mi South 9.2 mph - N/A   Clear
3:35 AM 28.4 °F 18.0 °F 24.8 °F 86% 29.61 in 10.0 mi South 12.7 mph - N/A   Clear
3:55 AM 28.4 °F 20.4 °F 23.0 °F 80% 29.60 in 10.0 mi South 8.1 mph - N/A   Clear
4:15 AM 28.4 °F 21.2 °F 23.0 °F 80% 29.60 in 10.0 mi South 6.9 mph - N/A   Clear
4:35 AM 28.4 °F 20.4 °F 23.0 °F 80% 29.59 in 10.0 mi South 8.1 mph - N/A   Clear
4:55 AM 28.4 °F 22.2 °F 23.0 °F 80% 29.59 in 10.0 mi South 5.8 mph - N/A   Clear
5:15 AM 26.6 °F 17.5 °F 23.0 °F 86% 29.58 in 10.0 mi South 9.2 mph - N/A   Clear
5:35 AM 26.6 °F 19.1 °F 21.2 °F 80% 29.57 in 10.0 mi South 6.9 mph - N/A   Clear
5:55 AM 26.6 °F 19.1 °F 21.2 °F 80% 29.57 in 10.0 mi South 6.9 mph - N/A   Clear
6:15 AM 24.8 °F 17.9 °F 19.4 °F 80% 29.56 in 10.0 mi SSE 5.8 mph - N/A   Clear
6:35 AM 24.8 °F 16.1 °F 21.2 °F 86% 29.56 in 10.0 mi South 8.1 mph - N/A   Clear
6:55 AM 24.8 °F 15.3 °F 21.2 °F 86% 29.56 in 10.0 mi South 9.2 mph - N/A   Clear
7:15 AM 24.8 °F 16.1 °F 21.2 °F 86% 29.56 in 10.0 mi South 8.1 mph - N/A   Clear
7:36 AM 26.6 °F 18.2 °F 23.0 °F 86% 29.55 in 10.0 mi South 8.1 mph - N/A   Clear
7:55 AM 28.4 °F 19.1 °F 24.8 °F 86% 29.55 in 10.0 mi South 10.4 mph - N/A   Clear
8:15 AM 30.2 °F 22.6 °F 24.8 °F 80% 29.54 in 10.0 mi South 8.1 mph - N/A   Clear
8:35 AM 32.0 °F 24.2 °F 26.6 °F 80% 29.54 in 10.0 mi South 9.2 mph - N/A   Clear
8:55 AM 32.0 °F 21.6 °F 26.6 °F 80% 29.53 in 10.0 mi South 15.0 mph - N/A   Clear
9:15 AM 33.8 °F 24.8 °F 26.6 °F 75% 29.53 in 10.0 mi SSW 12.7 mph - N/A   Clear
9:35 AM 35.6 °F 28.6 °F 28.4 °F 75% 29.54 in 10.0 mi SSW 9.2 mph - N/A   Clear
9:55 AM 39.2 °F 35.0 °F 28.4 °F 65% 29.53 in 10.0 mi SSW 5.8 mph - N/A   Clear
10:35 AM 42.8 °F 38.0 °F 26.6 °F 53% 29.52 in 10.0 mi SW 8.1 mph - N/A   Clear
10:55 AM 44.6 °F 40.2 °F 26.6 °F 49% 29.51 in 10.0 mi SW 8.1 mph - N/A   Clear
11:15 AM 46.4 °F 41.9 °F 26.6 °F 46% 29.50 in 10.0 mi WSW 9.2 mph - N/A   Clear
11:35 AM 48.2 °F - 26.6 °F 43% 29.49 in 10.0 mi SW 10.4 mph - N/A   Clear
11:55 AM 48.2 °F - 26.6 °F 43% 29.47 in 10.0 mi SW 10.4 mph - N/A   Clear
12:15 PM 50.0 °F - 26.6 °F 40% 29.46 in 10.0 mi SW 10.4 mph - N/A   Clear
12:35 PM 50.0 °F - 28.4 °F 43% 29.45 in 10.0 mi SSW 11.5 mph - N/A   Clear
12:55 PM 50.0 °F - 26.6 °F 40% 29.44 in 10.0 mi SSW 10.4 mph - N/A   Clear
1:15 PM 50.0 °F - 26.6 °F 40% 29.43 in 10.0 mi SSW 13.8 mph - N/A   Clear
1:35 PM 50.0 °F - 26.6 °F 40% 29.43 in 10.0 mi SSW 17.3 mph - N/A   Clear
1:55 PM 48.2 °F - 26.6 °F 43% 29.41 in 10.0 mi SSW 15.0 mph 19.6 mph N/A   Clear
2:15 PM 48.2 °F - 26.6 °F 43% 29.41 in 10.0 mi SSW 15.0 mph - N/A   Clear
2:35 PM 48.2 °F - 26.6 °F 43% 29.40 in 10.0 mi SSW 15.0 mph - N/A   Clear
2:55 PM 48.2 °F - 24.8 °F 40% 29.40 in 10.0 mi SSW 13.8 mph 19.6 mph N/A   Clear
3:15 PM 48.2 °F - 24.8 °F 40% 29.39 in 10.0 mi SSW 12.7 mph - N/A   Clear
3:35 PM 46.4 °F 41.9 °F 21.2 °F 37% 29.39 in 10.0 mi SW 9.2 mph - N/A   Clear
3:55 PM 44.6 °F 40.7 °F 24.8 °F 46% 29.39 in 10.0 mi SW 6.9 mph - N/A   Clear
4:15 PM 42.8 °F 38.6 °F 21.2 °F 42% 29.38 in 10.0 mi SW 6.9 mph - N/A   Clear
4:35 PM 39.2 °F 34.2 °F 21.2 °F 49% 29.38 in 10.0 mi SW 6.9 mph - N/A   Clear
4:55 PM 37.4 °F 32.1 °F 19.4 °F 48% 29.38 in 10.0 mi SW 6.9 mph - N/A   Clear
5:15 PM 35.6 °F 29.9 °F 19.4 °F 52% 29.38 in 10.0 mi WSW 6.9 mph - N/A   Clear
5:35 PM 30.2 °F 24.3 °F 19.4 °F 64% 29.38 in 10.0 mi WSW 5.8 mph - N/A   Clear
5:55 PM 30.2 °F 22.6 °F 19.4 °F 64% 29.38 in 10.0 mi WSW 8.1 mph - N/A   Clear
6:15 PM 30.2 °F 23.4 °F 19.4 °F 64% 29.38 in 10.0 mi WSW 6.9 mph - N/A   Clear
6:35 PM 28.4 °F 22.2 °F 19.4 °F 69% 29.37 in 10.0 mi SW 5.8 mph - N/A   Clear
6:55 PM 30.2 °F 22.6 °F 19.4 °F 64% 29.37 in 10.0 mi SW 8.1 mph - N/A   Clear
7:15 PM 32.0 °F 24.8 °F 21.2 °F 64% 29.36 in 10.0 mi SW 8.1 mph - N/A   Clear
7:35 PM 32.0 °F 25.6 °F 21.2 °F 64% 29.36 in 10.0 mi SW 6.9 mph - N/A   Clear
7:55 PM 33.8 °F 28.6 °F 21.2 °F 60% 29.35 in 10.0 mi SSW 5.8 mph - N/A   Clear
8:15 PM 33.8 °F 27.7 °F 21.2 °F 60% 29.35 in 10.0 mi South 6.9 mph - N/A   Clear
8:55 PM 30.2 °F 24.3 °F 19.4 °F 64% 29.35 in 10.0 mi SW 5.8 mph - N/A   Clear
9:35 PM 32.0 °F 25.6 °F 21.2 °F 64% 29.34 in 10.0 mi SW 6.9 mph - N/A   Clear
9:55 PM 33.8 °F 27.0 °F 24.8 °F 70% 29.33 in 10.0 mi South 8.1 mph - N/A   Mostly Cloudy
10:15 PM 33.8 °F 26.4 °F 24.8 °F 70% 29.35 in 10.0 mi NW 9.2 mph 19.6 mph N/A   Overcast
10:35 PM 35.6 °F 29.9 °F 24.8 °F 65% 29.35 in 10.0 mi West 6.9 mph - N/A   Overcast
10:55 PM 35.6 °F 29.9 °F 24.8 °F 65% 29.34 in 10.0 mi West 6.9 mph - N/A   Scattered Clouds
11:15 PM 35.6 °F 30.7 °F 24.8 °F 65% 29.35 in 10.0 mi West 5.8 mph - N/A   Scattered Clouds
11:35 PM 35.6 °F - 24.8 °F 65% 29.34 in 10.0 mi Calm Calm - N/A   Scattered Clouds
11:55 PM 35.6 °F 31.7 °F 24.8 °F 65% 29.34 in 10.0 mi North 4.6 mph - N/A   Mostly Cloudy